User: anonymous   Login
Location: Arcabell
(42.4308°N, 1.4823°E)
Time: 06:08:57
(UTC+00:00)
Language:

CZ-6A DEB - Orbit

View from above orbital plane
View from above orbital plane
View from above satellite
View from above satellite

Ground track
Ground track

The orbit is defined by the following mean orbital elements,

1 61267U          26018.77551847 +.00000000 +00000-0 +70934-3 0 00002
2 61267  89.1570 300.9227 0052635 349.4758  10.5328 14.24027996    01
Epoch (UTC): 18 January 2026 18:36:44
Eccentricity: 0.0052635
inclination: 89.1570°
perigee height: 774 km
apogee height: 850 km
right ascension of ascending node: 300.9227°
argument of perigee: 349.4758°
revolutions per day: 14.24027996
mean anomaly at epoch: 10.5328°

The dashed part of the orbit path shows where the satellite is in the earth's shadow,  

DLR